Home > Weather > Oberlin > Past weeks

Flag for USA Past Weather in Oberlin, Ohio, USA — Yesterday and Last 2 Weeks

Now
80 °F

Sunny.


Feels Like: 83 °F
Forecast: 75 / 87 °F
Wind: 8 mph from Northwest

Location: Lorain County Regional Airport

Current Time: Jul 25, 2016 at 12:16:07 PM

Latest Report: Jul 25, 2016 at 11:53 AM


Visibility: 10 mi

Pressure: 29.96 "Hg

Humidity: 69%

Dew Point: 69 °F

Location of OberlinLocation

Past Weather in Oberlin — Graph

°F

Oberlin Temperature Yesterday

Maximum temperature yesterday: 83 °F (at 10:53 AM)
Minimum temperature yesterday: 68 °F (at 2:53 AM)
Average temperature yesterday: 76 °F

High & Low Weather Summary for the Past Weeks

 TemperatureHumidityPressure
High90 °F (Jul 12, 2:53 PM)97% (Jul 17, 6:53 AM)30.29 "Hg (Jul 17, 6:53 AM)
Low56 °F (Jul 20, 6:53 AM)37% (Jul 20, 2:53 PM)29.84 "Hg (Jul 14, 3:53 AM)
Average75 °F68%30.03 "Hg
* Reported Jul 10 10:53 AM — Jul 25 10:53 AM, Oberlin, Weather by CustomWeather, © 2016

Note: Actual official high and low records may vary slightly from our data, if they occured in-between our weather recording intervals... More about our weather records

Advertising

Oberlin Weather History for the Previous 24 Hours

Scroll right to see more
 ConditionsComfort  
Time TempWeatherWind HumidityBarometerVisibility
10:53 AM
Mon, Jul 25
81 °FPassing clouds.10 mph67%29.95 "Hg10 mi
9:53 AM80 °FSunny.8 mph69%29.93 "Hg10 mi
8:53 AM81 °FSunny.9 mph79%29.94 "Hg9 mi
7:53 AM77 °FFog.9 mph88%29.93 "Hg6 mi
6:53 AM74 °FFog.6 mph91%29.91 "Hg5 mi
5:53 AM75 °FClear.7 mph88%29.91 "Hg8 mi
4:53 AM76 °FClear.8 mph85%29.93 "Hg10 mi
3:53 AM75 °FClear.7 mph85%29.91 "Hg10 mi
2:53 AM74 °FClear.7 mph85%29.93 "Hg10 mi
1:53 AM75 °FClear.8 mph82%29.93 "Hg10 mi
12:53 AM76 °FClear.8 mph80%29.93 "Hg10 mi
11:53 PM
Sun, Jul 24
76 °FClear.12 mph85%29.93 "Hg10 mi
10:53 PM76 °FClear.6 mph85%29.95 "Hg10 mi
9:53 PM77 °FClear.7 mph82%29.94 "Hg10 mi
8:53 PM78 °FSunny.6 mph79%29.94 "Hg10 mi
7:53 PM79 °FSunny.5 mph77%29.95 "Hg10 mi
6:53 PM80 °FSunny.6 mph71%29.94 "Hg10 mi
5:53 PM79 °FSunny.9 mph74%29.94 "Hg10 mi
4:53 PM76 °FSunny.8 mph80%29.96 "Hg10 mi
3:53 PM75 °FLight rain. Scattered clouds.9 mph82%29.99 "Hg10 mi
2:53 PM80 °FPassing clouds.9 mph76%29.98 "Hg10 mi
1:53 PM80 °FPassing clouds.8 mph81%29.98 "Hg10 mi
12:53 PM75 °FRain. Fog.10 mph90%29.99 "Hg4 mi
Weather by CustomWeather, © 2016

See weather overviewHow to use our weather pages